Time,TemperatureF,DewpointF,PressureIn,WindDirection,WindDirectionDegrees,WindSpeedMPH,WindSpeedGustMPH,Humidity,HourlyPrecipIn,Conditions,Clouds,dailyrainin,SoftwareType,DateUTC
2013-03-20 00:08:00,15.1,9.0,30.35,WNW,303,7.0,19.0,75,0.00,,,0.00,weatherlink.com 1.10,2013-03-20 05:08:00,
2013-03-20 00:23:00,15.0,9.0,30.35,NNW,330,7.0,15.0,78,0.00,,,0.00,weatherlink.com 1.10,2013-03-20 05:23:00,
2013-03-20 00:38:00,15.3,10.0,30.35,NW,304,6.0,18.0,78,0.00,,,0.00,weatherlink.com 1.10,2013-03-20 05:38:00,
2013-03-20 00:53:00,15.2,9.0,30.35,NW,323,7.0,16.0,77,0.00,,,0.00,weatherlink.com 1.10,2013-03-20 05:53:00,
2013-03-20 01:08:00,14.8,9.0,30.35,NW,320,13.0,18.0,76,0.00,,,0.00,weatherlink.com 1.10,2013-03-20 06:08:00,
2013-03-20 01:23:00,14.8,8.0,30.35,NW,315,6.0,18.0,75,0.00,,,0.00,weatherlink.com 1.10,2013-03-20 06:23:00,
2013-03-20 01:38:00,14.3,9.0,30.35,North,349,8.0,14.0,79,0.00,,,0.00,weatherlink.com 1.10,2013-03-20 06:38:00,
2013-03-20 01:53:00,14.2,8.0,30.35,West,281,12.0,17.0,77,0.00,,,0.00,weatherlink.com 1.10,2013-03-20 06:53:00,
2013-03-20 02:08:00,14.1,8.0,30.35,NW,304,10.0,18.0,78,0.00,,,0.00,weatherlink.com 1.10,2013-03-20 07:08:00,
2013-03-20 02:23:00,14.2,9.0,30.35,NNW,329,12.0,15.0,81,0.00,,,0.00,weatherlink.com 1.10,2013-03-20 07:23:00,
2013-03-20 02:38:00,14.3,9.0,30.35,NW,321,6.0,14.0,79,0.00,,,0.00,weatherlink.com 1.10,2013-03-20 07:38:00,
2013-03-20 02:54:00,13.7,9.0,30.35,WNW,296,8.0,19.0,81,0.00,,,0.00,weatherlink.com 1.10,2013-03-20 07:54:00,
2013-03-20 03:09:00,12.7,7.0,30.36,NNW,333,8.0,16.0,76,0.00,,,0.00,weatherlink.com 1.10,2013-03-20 08:09:00,
2013-03-20 03:24:00,12.3,6.0,30.36,WNW,282,11.0,23.0,75,0.00,,,0.00,weatherlink.com 1.10,2013-03-20 08:24:00,
2013-03-20 03:39:00,11.9,5.0,30.36,NW,312,13.0,17.0,75,0.00,,,0.00,weatherlink.com 1.10,2013-03-20 08:39:00,
2013-03-20 03:54:00,11.7,6.0,30.35,NW,326,5.0,18.0,76,0.00,,,0.00,weatherlink.com 1.10,2013-03-20 08:54:00,
2013-03-20 04:09:00,11.5,5.0,30.36,WNW,298,10.0,16.0,75,0.00,,,0.00,weatherlink.com 1.10,2013-03-20 09:09:00,
2013-03-20 04:24:00,11.2,5.0,30.36,WNW,296,10.0,13.0,77,0.00,,,0.00,weatherlink.com 1.10,2013-03-20 09:24:00,
2013-03-20 04:39:00,11.0,5.0,30.36,NNW,346,3.0,12.0,76,0.00,,,0.00,weatherlink.com 1.10,2013-03-20 09:39:00,
2013-03-20 04:54:00,10.8,5.0,30.36,NW,309,5.0,15.0,76,0.00,,,0.00,weatherlink.com 1.10,2013-03-20 09:54:00,
2013-03-20 05:09:00,10.7,5.0,30.36,NW,324,10.0,16.0,77,0.00,,,0.00,weatherlink.com 1.10,2013-03-20 10:09:00,
2013-03-20 05:24:00,10.5,4.0,30.37,WNW,299,9.0,14.0,76,0.00,,,0.00,weatherlink.com 1.10,2013-03-20 10:24:00,
2013-03-20 05:39:00,10.4,4.0,30.37,WNW,300,5.0,19.0,76,0.00,,,0.00,weatherlink.com 1.10,2013-03-20 10:39:00,
2013-03-20 05:54:00,10.4,4.0,30.37,WNW,301,5.0,17.0,76,0.00,,,0.00,weatherlink.com 1.10,2013-03-20 10:54:00,
2013-03-20 06:12:00,10.3,4.0,30.36,WNW,299,12.0,16.0,77,0.00,,,0.00,weatherlink.com 1.10,2013-03-20 11:12:00,
2013-03-20 06:24:00,10.2,4.0,30.37,NW,310,9.0,17.0,76,0.00,,,0.00,weatherlink.com 1.10,2013-03-20 11:24:00,
2013-03-20 06:40:00,10.1,4.0,30.37,NNW,348,9.0,18.0,76,0.00,,,0.00,weatherlink.com 1.10,2013-03-20 11:40:00,
2013-03-20 06:55:00,10.1,4.0,30.38,WNW,298,6.0,17.0,77,0.00,,,0.00,weatherlink.com 1.10,2013-03-20 11:55:00,
2013-03-20 07:10:00,10.0,4.0,30.38,NW,309,6.0,15.0,77,0.00,,,0.00,weatherlink.com 1.10,2013-03-20 12:10:00,
2013-03-20 07:25:00,10.0,4.0,30.38,WNW,302,17.0,17.0,77,0.00,,,0.00,weatherlink.com 1.10,2013-03-20 12:25:00,
2013-03-20 07:40:00,9.9,4.0,30.38,NW,313,8.0,13.0,77,0.00,,,0.00,weatherlink.com 1.10,2013-03-20 12:40:00,
2013-03-20 07:59:00,10.4,4.0,30.38,WNW,298,4.0,14.0,75,0.00,,,0.00,weatherlink.com 1.10,2013-03-20 12:59:00,
2013-03-20 08:10:00,10.8,4.0,30.39,WNW,293,11.0,16.0,74,0.00,,,0.00,weatherlink.com 1.10,2013-03-20 13:10:00,
2013-03-20 08:25:00,11.0,4.0,30.38,WNW,298,9.0,15.0,74,0.00,,,0.00,weatherlink.com 1.10,2013-03-20 13:25:00,
2013-03-20 08:40:00,11.3,4.0,30.38,WNW,296,16.0,18.0,73,0.00,,,0.00,weatherlink.com 1.10,2013-03-20 13:40:00,
2013-03-20 08:55:00,11.7,4.0,30.37,WNW,291,9.0,19.0,72,0.00,,,0.00,weatherlink.com 1.10,2013-03-20 13:55:00,
2013-03-20 09:10:00,12.3,4.0,30.37,NW,308,7.0,16.0,70,0.00,,,0.00,weatherlink.com 1.10,2013-03-20 14:10:00,
2013-03-20 09:25:00,12.7,4.0,30.37,WNW,296,10.0,17.0,69,0.00,,,0.00,weatherlink.com 1.10,2013-03-20 14:25:00,
2013-03-20 09:40:00,13.2,4.0,30.37,WNW,303,4.0,19.0,68,0.00,,,0.00,weatherlink.com 1.10,2013-03-20 14:40:00,
2013-03-20 09:57:00,13.9,4.0,30.36,NW,309,10.0,19.0,65,0.00,,,0.00,weatherlink.com 1.10,2013-03-20 14:57:00,
2013-03-20 10:11:00,14.4,4.0,30.36,WNW,298,10.0,19.0,64,0.00,,,0.00,weatherlink.com 1.10,2013-03-20 15:11:00,
2013-03-20 10:26:00,14.7,5.0,30.36,WNW,302,10.0,20.0,64,0.00,,,0.00,weatherlink.com 1.10,2013-03-20 15:26:00,
2013-03-20 10:41:00,15.3,5.0,30.36,North,11,11.0,18.0,63,0.00,,,0.00,weatherlink.com 1.10,2013-03-20 15:41:00,
2013-03-20 10:56:00,15.6,5.0,30.36,NW,306,13.0,25.0,62,0.00,,,0.00,weatherlink.com 1.10,2013-03-20 15:56:00,
2013-03-20 11:26:00,17.0,6.0,30.36,NW,307,14.0,22.0,61,0.00,,,0.00,weatherlink.com 1.10,2013-03-20 16:26:00,
2013-03-20 11:41:00,17.1,5.0,30.35,NNW,344,6.0,17.0,60,0.00,,,0.00,weatherlink.com 1.10,2013-03-20 16:41:00,
2013-03-20 11:56:00,17.7,5.0,30.35,NW,321,16.0,20.0,57,0.00,,,0.00,weatherlink.com 1.10,2013-03-20 16:56:00,
2013-03-20 12:11:00,18.2,6.0,30.34,NW,307,6.0,23.0,59,0.00,,,0.00,weatherlink.com 1.10,2013-03-20 17:11:00,
2013-03-20 12:26:00,18.0,5.0,30.34,NW,313,12.0,26.0,58,0.00,,,0.00,weatherlink.com 1.10,2013-03-20 17:26:00,
2013-03-20 12:41:00,18.9,7.0,30.33,NW,320,14.0,21.0,59,0.00,,,0.00,weatherlink.com 1.10,2013-03-20 17:41:00,
2013-03-20 12:56:00,19.3,6.0,30.33,NW,323,9.0,18.0,57,0.00,,,0.00,weatherlink.com 1.10,2013-03-20 17:56:00,
2013-03-20 13:11:00,19.5,6.0,30.32,WNW,286,9.0,22.0,57,0.00,,,0.00,weatherlink.com 1.10,2013-03-20 18:11:00,
2013-03-20 13:42:00,20.1,7.0,30.31,WNW,299,8.0,18.0,56,0.00,,,0.00,weatherlink.com 1.10,2013-03-20 18:42:00,
2013-03-20 13:57:00,20.9,7.0,30.30,NW,306,7.0,19.0,54,0.00,,,0.00,weatherlink.com 1.10,2013-03-20 18:57:00,
2013-03-20 14:12:00,20.9,7.0,30.30,NW,317,8.0,26.0,56,0.00,,,0.00,weatherlink.com 1.10,2013-03-20 19:12:00,
2013-03-20 14:27:00,21.1,8.0,30.29,WNW,296,9.0,19.0,57,0.00,,,0.00,weatherlink.com 1.10,2013-03-20 19:27:00,
2013-03-20 14:42:00,21.1,8.0,30.28,NNW,339,6.0,19.0,58,0.00,,,0.00,weatherlink.com 1.10,2013-03-20 19:42:00,
2013-03-20 14:57:00,21.3,8.0,30.27,NW,313,11.0,20.0,56,0.00,,,0.00,weatherlink.com 1.10,2013-03-20 19:57:00,
2013-03-20 15:12:00,21.6,9.0,30.27,WNW,295,9.0,21.0,58,0.00,,,0.00,weatherlink.com 1.10,2013-03-20 20:12:00,
2013-03-20 15:27:00,21.6,8.0,30.27,WNW,300,9.0,25.0,57,0.00,,,0.00,weatherlink.com 1.10,2013-03-20 20:27:00,
2013-03-20 15:42:00,22.5,9.0,30.26,WNW,292,14.0,23.0,57,0.00,,,0.00,weatherlink.com 1.10,2013-03-20 20:42:00,
2013-03-20 15:57:00,22.5,9.0,30.25,West,279,13.0,21.0,56,0.00,,,0.00,weatherlink.com 1.10,2013-03-20 20:57:00,
2013-03-20 16:12:00,22.3,10.0,30.25,West,263,10.0,20.0,59,0.00,,,0.00,weatherlink.com 1.10,2013-03-20 21:12:00,
2013-03-20 16:27:00,22.8,10.0,30.25,WNW,294,11.0,19.0,57,0.00,,,0.00,weatherlink.com 1.10,2013-03-20 21:27:00,
2013-03-20 16:42:00,22.7,9.0,30.25,NNW,344,8.0,21.0,56,0.00,,,0.00,weatherlink.com 1.10,2013-03-20 21:42:00,
2013-03-20 16:57:00,23.1,10.0,30.25,NW,320,6.0,22.0,58,0.00,,,0.00,weatherlink.com 1.10,2013-03-20 21:57:00,
2013-03-20 17:13:00,22.4,9.0,30.25,NNW,342,9.0,23.0,57,0.00,,,0.00,weatherlink.com 1.10,2013-03-20 22:13:00,
2013-03-20 17:28:00,22.8,9.0,30.24,NNW,327,9.0,19.0,56,0.00,,,0.00,weatherlink.com 1.10,2013-03-20 22:28:00,
2013-03-20 17:43:00,22.4,9.0,30.24,West,280,11.0,20.0,56,0.00,,,0.00,weatherlink.com 1.10,2013-03-20 22:43:00,
2013-03-20 17:58:00,22.6,9.0,30.23,NW,308,12.0,16.0,57,0.00,,,0.00,weatherlink.com 1.10,2013-03-20 22:58:00,
2013-03-20 18:13:00,22.3,10.0,30.23,NNW,330,10.0,18.0,59,0.00,,,0.00,weatherlink.com 1.10,2013-03-20 23:13:00,
2013-03-20 18:28:00,22.2,9.0,30.23,NW,319,8.0,16.0,56,0.00,,,0.00,weatherlink.com 1.10,2013-03-20 23:28:00,
2013-03-20 18:43:00,21.8,9.0,30.23,NW,304,12.0,18.0,59,0.00,,,0.00,weatherlink.com 1.10,2013-03-20 23:43:00,
2013-03-20 18:58:00,21.5,9.0,30.23,WNW,294,11.0,17.0,60,0.00,,,0.00,weatherlink.com 1.10,2013-03-20 23:58:00,
2013-03-20 19:13:00,20.7,9.0,30.23,NW,318,4.0,14.0,60,0.00,,,0.00,weatherlink.com 1.10,2013-03-21 00:13:00,
2013-03-20 19:28:00,20.2,9.0,30.22,NW,311,3.0,12.0,63,0.00,,,0.00,weatherlink.com 1.10,2013-03-21 00:28:00,
2013-03-20 19:43:00,19.6,9.0,30.22,NW,324,7.0,11.0,64,0.00,,,0.00,weatherlink.com 1.10,2013-03-21 00:43:00,
2013-03-20 19:58:00,19.2,10.0,30.22,NW,319,3.0,11.0,66,0.00,,,0.00,weatherlink.com 1.10,2013-03-21 00:58:00,
2013-03-20 20:13:00,19.0,10.0,30.21,NNW,342,3.0,11.0,67,0.00,,,0.00,weatherlink.com 1.10,2013-03-21 01:13:00,
2013-03-20 20:28:00,18.7,10.0,30.22,NW,313,4.0,10.0,68,0.00,,,0.00,weatherlink.com 1.10,2013-03-21 01:28:00,
2013-03-20 20:44:00,18.2,10.0,30.22,NW,319,5.0,9.0,70,0.00,,,0.00,weatherlink.com 1.10,2013-03-21 01:44:00,
2013-03-20 20:59:00,18.0,10.0,30.23,NNW,336,4.0,14.0,70,0.00,,,0.00,weatherlink.com 1.10,2013-03-21 01:59:00,
2013-03-20 21:14:00,17.6,10.0,30.23,NNW,347,5.0,9.0,71,0.00,,,0.00,weatherlink.com 1.10,2013-03-21 02:14:00,
2013-03-20 21:29:00,17.3,9.0,30.23,NW,323,5.0,9.0,71,0.00,,,0.00,weatherlink.com 1.10,2013-03-21 02:29:00,
2013-03-20 21:44:00,16.9,9.0,30.22,North,5,2.0,9.0,72,0.00,,,0.00,weatherlink.com 1.10,2013-03-21 02:44:00,
2013-03-20 21:59:00,16.6,9.0,30.23,NNW,333,5.0,10.0,73,0.00,,,0.00,weatherlink.com 1.10,2013-03-21 02:59:00,
2013-03-20 22:14:00,16.3,9.0,30.23,NNW,331,9.0,10.0,72,0.00,,,0.00,weatherlink.com 1.10,2013-03-21 03:14:00,
2013-03-20 22:29:00,16.0,9.0,30.23,NNW,341,5.0,10.0,73,0.00,,,0.00,weatherlink.com 1.10,2013-03-21 03:29:00,
2013-03-20 22:45:00,15.5,8.0,30.23,NNE,16,5.0,12.0,73,0.00,,,0.00,weatherlink.com 1.10,2013-03-21 03:45:00,
2013-03-20 22:59:00,15.2,8.0,30.23,NNW,347,3.0,9.0,73,0.00,,,0.00,weatherlink.com 1.10,2013-03-21 03:59:00,
2013-03-20 23:14:00,14.8,7.0,30.23,WNW,293,5.0,10.0,72,0.00,,,0.00,weatherlink.com 1.10,2013-03-21 04:14:00,
2013-03-20 23:29:00,14.5,7.0,30.22,NNE,12,3.0,10.0,71,0.00,,,0.00,weatherlink.com 1.10,2013-03-21 04:29:00,
2013-03-20 23:44:00,14.3,7.0,30.22,NNW,338,6.0,10.0,72,0.00,,,0.00,weatherlink.com 1.10,2013-03-21 04:44:00,
2013-03-20 23:59:00,14.0,7.0,30.22,NNE,14,3.0,10.0,72,0.00,,,0.00,weatherlink.com 1.10,2013-03-21 04:59:00,